Lapse_Rate
5.9 5.8 5.8 5.7 5.7 5.7 5.7 5.9 5.9 5.9 5.9 5.9 5.9 5.9 5.9 5.9 6.0 6.0 6.0 5.6 5.6 5.7 5.7 5.8 6.0 6.0 6.2 6.3 6.4 6.5 6.5 6.5 6.5
6.1 6.0 5.8 5.8 5.9 5.8 5.7 5.7 5.7 5.9 5.8 5.9 5.9 6.0 5.9 6.0 6.1 6.1 6.1 6.1 5.8 5.8 5.8 5.8 5.8 5.9 5.9 6.1 6.2 6.2 6.3 6.3 6.3
6.1 6.0 5.9 5.8 5.8 5.8 5.8 5.8 5.8 5.9 5.9 5.8 5.9 5.9 6.0 6.1 6.1 6.2 6.3 6.3 6.1 6.1 6.0 5.9 5.9 5.9 5.9 5.9 5.9 5.9 6.0 6.0 6.1
6.1 6.1 6.0 6.0 6.0 5.9 5.7 5.7 5.7 5.8 5.9 5.9 5.8 5.9 5.9 6.1 6.2 6.3 6.4 6.3 6.3 6.3 6.2 6.1 6.0 5.9 5.9 5.9 5.9 5.9 5.9 5.9 5.9
6.2 6.3 6.3 6.3 6.2 6.2 6.1 5.8 5.7 5.7 5.8 5.9 5.9 5.9 5.8 6.0 6.0 6.3 6.5 6.4 6.2 6.3 6.3 6.2 6.1 6.1 6.0 6.0 5.9 5.8 5.8 5.8 5.8
6.2 6.2 6.3 6.2 5.9 5.9 6.1 6.1 6.0 5.8 5.8 5.8 5.9 5.8 5.9 6.0 5.9 6.0 6.3 6.5 6.4 6.4 6.3 6.3 6.3 6.1 6.1 6.0 6.0 6.0 6.0 5.9 5.8
6.5 6.5 6.5 6.5 6.5 6.4 6.3 6.1 5.8 5.9 5.9 6.0 5.9 5.8 6.0 5.9 5.9 6.0 6.1 6.3 6.5 6.5 6.5 6.3 6.2 6.3 6.2 6.1 6.1 6.0 5.9 6.0 6.0
7.0 6.9 6.8 6.7 6.7 6.6 6.6 6.5 6.3 6.0 6.0 6.0 5.9 5.8 5.8 5.9 6.0 6.0 6.1 6.3 6.4 6.5 6.5 6.4 6.3 6.2 6.2 6.2 6.1 6.1 6.2 6.2 6.2
7.2 7.2 7.2 7.1 7.0 6.9 6.7 6.6 6.4 6.3 6.0 6.0 6.0 5.9 5.9 5.9 5.9 6.1 6.1 6.3 6.4 6.4 6.5 6.4 6.4 6.4 6.3 6.3 6.2 6.1 6.0 6.1 6.1
7.2 7.2 7.2 7.2 7.1 7.1 7.1 6.9 6.5 6.4 6.3 6.1 6.1 6.0 6.0 6.1 6.0 6.1 6.2 6.1 6.3 6.3 6.4 6.5 6.4 6.4 6.4 6.1 6.1 6.1 6.0 5.9 5.9
7.2 7.0 6.9 7.0 7.0 7.0 6.9 6.8 6.7 6.5 6.2 6.1 5.9 6.0 5.9 6.1 6.2 6.1 6.2 6.1 6.4 6.4 6.3 6.5 6.5 6.5 6.4 6.3 6.3 6.2 6.0 5.9 5.8
6.9 6.9 6.8 6.7 6.5 6.4 6.3 6.1 5.9 6.0 6.2 6.1 6.2 6.0 5.9 6.2 6.2 6.1 6.3 6.3 6.3 6.3 6.4 6.4 6.5 6.5 6.5 6.3 6.2 6.2 6.1 5.9 5.8
6.8 6.6 6.7 6.7 6.2 5.7 5.4 6.0 6.3 6.1 6.0 6.2 5.9 6.1 6.0 6.0 6.1 6.4 6.2 6.3 6.3 6.3 6.5 6.4 6.3 6.2 6.2 6.3 6.3 6.0 5.9 5.8 5.8
6.5 6.4 6.4 6.4 5.9 5.4 5.4 5.9 6.3 6.9 6.8 6.2 6.1 5.8 6.0 5.9 6.1 6.1 6.2 6.3 6.1 6.1 6.5 6.3 6.1 6.1 5.9 5.7 5.7 5.8 5.7 5.6 5.7
6.3 6.4 6.4 6.1 5.6 5.3 5.5 5.8 6.3 6.5 6.7 6.4 6.6 5.8 5.6 5.9 6.1 6.2 6.1 6.1 6.0 6.0 6.0 6.1 6.1 5.7 5.7 5.7 5.6 5.6 5.5 5.4 5.7
6.3 6.2 6.2 5.9 5.6 5.2 5.5 5.9 6.3 6.6 6.4 6.4 6.5 6.2 5.3 5.6 6.1 6.3 6.1 6.1 6.2 6.0 6.3 6.2 6.1 5.8 5.7 5.6 5.7 5.5 5.6 5.5 5.6
6.1 6.1 6.0 5.8 5.5 5.3 5.2 5.6 6.0 6.2 6.1 6.7 6.5 6.4 5.9 5.6 6.0 5.6 5.8 5.9 6.0 6.0 5.9 5.5 5.5 4.9 5.7 5.2 5.4 5.1 5.0 5.2 5.4
6.0 6.0 5.9 5.7 5.3 5.2 5.2 5.6 6.0 6.2 6.3 6.5 6.7 6.7 6.4 5.8 5.6 5.6 5.6 5.5 5.7 6.1 5.6 5.4 5.4 5.4 5.0 5.4 5.4 5.0 4.8 5.1 5.0
5.9 5.8 5.7 5.7 5.5 5.1 5.1 5.3 5.9 6.4 6.7 7.2 7.1 6.9 6.5 6.2 5.7 5.8 5.8 6.0 6.1 5.7 5.8 5.8 5.8 5.7 5.0 4.8 4.8 5.0 4.8 4.7 4.9
5.8 5.7 5.7 5.6 5.5 5.2 5.0 4.9 5.3 6.0 6.1 6.3 6.6 6.7 6.8 6.5 5.4 5.7 5.7 5.6 5.6 5.6 5.5 6.4 6.2 5.7 5.8 6.1 5.7 5.2 4.9 4.7 4.7
Wind_Speed
12 13 12 13 12 12 12 12 12 14 15 15 13 13 12 11 10 9 6 15 13 11 11 11 10 11 10 9 9 8 7 7 7
13 14 14 15 15 15 14 13 12 14 17 17 16 15 14 12 12 10 7 15 14 12 11 12 12 11 11 11 10 10 9 8 7
15 16 16 16 17 16 17 16 15 14 18 19 18 17 17 14 13 13 10 15 16 14 13 13 12 12 12 11 11 10 9 8 7
17 18 20 19 18 17 18 17 16 16 18 20 19 19 20 16 13 13 11 17 18 16 15 15 14 14 13 12 11 10 10 9 8
17 18 20 18 17 18 19 19 19 19 19 21 22 21 21 17 15 14 12 12 22 19 18 17 16 15 15 14 13 12 11 10 9
19 18 19 17 16 16 18 21 20 21 22 22 22 23 15 14 14 13 15 14 24 21 20 20 18 17 16 15 15 14 13 12 11
19 21 21 21 20 18 18 19 22 22 15 14 21 16 16 14 14 16 20 21 23 22 21 21 20 19 18 17 16 16 15 15 14
14 13 15 17 17 13 17 14 10 13 14 12 13 16 15 15 15 19 23 24 25 24 23 22 22 21 20 20 19 18 17 16 16
9 7 11 12 14 11 10 9 13 9 12 13 12 15 14 15 15 18 25 25 26 27 25 24 23 22 23 22 21 20 19 18 17
8 8 10 10 13 12 7 6 6 8 7 11 10 10 13 17 16 16 24 27 28 30 28 27 25 24 23 24 22 22 21 21 19
5 4 5 7 11 13 11 5 6 8 8 5 7 12 12 14 15 14 17 24 26 31 30 28 26 26 25 24 23 24 23 22 21
8 4 5 7 12 12 10 7 5 6 6 6 5 6 8 11 11 13 10 12 23 28 28 27 26 25 26 26 24 22 23 22 21
8 4 5 10 10 6 4 5 5 4 6 8 5 4 5 7 10 16 16 9 13 22 27 27 26 26 25 27 25 22 20 22 21
8 4 7 13 5 5 6 7 4 6 6 7 5 4 5 6 6 8 8 10 10 10 18 24 26 27 25 26 25 23 21 19 20
10 5 6 10 7 6 5 6 6 5 6 7 7 4 5 7 5 5 5 5 7 7 8 12 17 15 18 22 23 22 19 17 15
6 5 7 8 8 9 9 7 7 5 3 3 4 4 5 4 3 2 3 3 4 1 5 6 6 8 3 11 16 17 14 12 10
8 5 7 8 8 10 9 7 5 3 2 2 2 3 1 3 4 4 3 3 3 9 12 8 12 13 9 18 13 11 5 4 3
7 8 7 8 7 7 10 6 6 4 3 5 3 2 2 1 3 5 5 3 6 7 9 12 13 13 11 10 17 11 8 4 4
8 9 9 8 7 8 7 7 6 4 5 3 3 1 3 2 1 2 2 2 5 5 6 9 7 8 9 14 15 15 5 4 1
7 6 6 7 6 8 9 9 8 6 4 2 1 1 2 2 2 3 2 1 2 3 2 5 5 9 9 7 11 13 8 6 7
Wind_Direction
291 280 274 262 266 260 262 270 256 220 206 206 214 217 212 223 243 257 281 184 173 178 173 173 167 161 163 162 160 156 153 149 146
305 301 286 269 263 260 258 259 251 225 209 210 215 214 211 219 239 247 271 171 174 186 182 175 178 176 175 175 174 174 171 167 165
299 293 287 278 264 258 255 252 251 240 219 215 215 214 212 218 234 252 253 214 184 193 192 194 190 188 186 187 187 185 183 179 175
288 285 282 276 269 259 250 247 247 240 229 222 217 216 215 216 227 245 248 224 196 198 196 200 201 197 195 195 196 195 195 193 190
304 302 291 272 271 269 260 245 242 238 231 229 227 223 222 216 226 245 250 244 203 201 197 202 207 208 205 203 202 203 204 204 205
334 327 329 309 290 286 277 255 244 242 236 229 227 230 229 215 225 234 247 242 224 207 202 202 208 212 212 211 210 209 212 213 214
341 341 338 337 331 295 285 275 258 248 242 238 231 228 225 214 223 230 239 243 232 212 204 201 206 212 214 215 218 218 216 217 219
346 345 342 340 336 340 322 289 265 248 234 226 223 228 221 221 225 231 231 235 231 214 204 205 207 212 215 217 218 220 223 224 224
336 336 333 336 330 323 317 317 297 255 246 237 225 222 222 222 222 232 230 230 225 219 206 205 210 217 216 219 220 221 222 225 228
337 336 335 328 326 324 317 316 315 300 268 254 243 233 224 224 222 222 228 230 224 219 208 207 212 218 226 226 222 221 221 223 226
331 322 316 311 312 312 312 301 305 303 292 277 255 251 240 230 223 234 222 225 218 215 205 206 213 217 223 229 225 225 224 223 226
333 309 301 296 298 302 308 305 307 306 298 276 269 267 263 250 233 233 239 213 218 212 207 207 210 215 222 227 228 223 222 225 227
321 305 290 293 298 292 294 297 298 305 305 297 272 279 274 266 253 237 228 214 215 219 214 208 213 215 219 226 229 228 223 220 225
310 302 318 323 304 302 297 305 281 295 298 300 283 283 285 280 274 271 234 206 202 217 224 215 213 215 218 224 230 233 232 228 223
334 348 334 337 324 312 303 297 297 275 272 287 288 280 280 274 245 254 251 209 201 203 220 234 231 228 228 223 229 234 238 238 240
337 348 342 337 329 311 304 298 288 292 275 294 308 303 299 323 277 66 260 162 118 180 154 351 127 53 287 265 244 248 252 249 253
360 354 340 330 328 321 319 307 297 267 272 264 276 290 246 39 356 94 90 96 141 109 86 72 61 79 33 70 76 84 23 351 317
4 3 341 326 322 326 326 302 295 281 278 230 208 283 189 103 334 35 82 147 118 107 115 113 137 134 125 75 78 67 75 181 76
13 1 344 331 327 327 329 330 316 296 279 318 218 242 175 172 178 16 41 41 116 159 145 135 119 132 110 126 123 98 77 54 96
2 356 343 337 334 329 332 336 350 339 324 259 298 66 52 118 140 152 162 149 85 79 85 78 86 71 80 73 74 85 75 28 17